This is the latest recevied weather packets stored in our database for station/object AD8IZ-13. If no packets are shown the sender has not sent any weather packets the latest 10 day(s).
| Time | Temp. | Humidity | Pressure | Rain* | Wind** | Luminosity | Snow |
|---|---|---|---|---|---|---|---|
| 1778012120 | 21.11° C | 66% | 1007.2 hPa | 0 mm | - | 148 W/m² | - |
| 1778011520 | 20.56° C | 67% | 1007.4 hPa | 0 mm | - | 179 W/m² | - |
| 1778010919 | 20.56° C | 66% | 1007.4 hPa | 0 mm | - | 175 W/m² | - |
| 1778010327 | 20.56° C | 67% | 1007.5 hPa | 0 mm | - | 178 W/m² | - |
| 1778009720 | 20.56° C | 68% | 1007.7 hPa | 0 mm | - | 198 W/m² | - |
| 1778009121 | 20.56° C | 67% | 1007.9 hPa | 0 mm | - | 136 W/m² | - |
| 1778008518 | 20.56° C | 68% | 1008 hPa | 0 mm | - | 108 W/m² | - |
| 1778007918 | 20.56° C | 67% | 1008.1 hPa | 0 mm | - | 169 W/m² | - |
| 1778007319 | 20° C | 67% | 1008.2 hPa | 0 mm | - | 158 W/m² | - |
| 1778006721 | 20° C | 67% | 1008.3 hPa | 0 mm | - | 135 W/m² | - |
| 1778006118 | 20° C | 67% | 1008.3 hPa | 0 mm | - | 135 W/m² | - |
| 1778005519 | 20° C | 68% | 1008.2 hPa | 0 mm | - | 96 W/m² | - |
| 1778004924 | 20.56° C | 66% | 1008.1 hPa | 0 mm | - | 69 W/m² | - |
| 1778004319 | 20.56° C | 66% | 1008.1 hPa | 0 mm | - | 154 W/m² | - |
| 1778003720 | 20.56° C | 66% | 1008.1 hPa | 0 mm | - | 90 W/m² | - |
| 1778003122 | 21.11° C | 66% | 1008.1 hPa | 0 mm | - | 109 W/m² | - |
| 1778002520 | 21.11° C | 65% | 1008.1 hPa | 0 mm | - | 78 W/m² | - |
| 1778001920 | 21.67° C | 64% | 1008.2 hPa | 0 mm | - | 168 W/m² | - |
| 1778001320 | 22.22° C | 64% | 1008.2 hPa | 0 mm | - | 287 W/m² | - |
| 1778000717 | 22.22° C | 64% | 1008.2 hPa | 0 mm | - | 512 W/m² | - |
| 1778000117 | 22.78° C | 62% | 1008.1 hPa | 0 mm | - | 495 W/m² | - |
| 1777999520 | 22.22° C | 63% | 1008.1 hPa | 0 mm | - | 692 W/m² | - |
| 1777998921 | 22.22° C | 63% | 1008.2 hPa | 0 mm | - | 768 W/m² | - |
| 1777998318 | 22.22° C | 62% | 1008.3 hPa | 0 mm | - | 505 W/m² | - |
| 1777997719 | 22.22° C | 63% | 1008.5 hPa | 0 mm | - | 841 W/m² | - |
* Rain latest hour (hover to see other rain measurements)
** Current wind speed in m/s (hover to see current wind gust speed)